TimeAKDT,TemperatureF,Dew PointF,Humidity,Sea Level PressureIn,VisibilityMPH,Wind Direction,Wind SpeedMPH,Gust SpeedMPH,PrecipitationIn,Events,Conditions,WindDirDegrees,DateUTC
12:53 AM,48.9,46.9,93,29.32,6.0,NNE,6.9,-,0.12,Rain,Rain,30,2012-10-12 08:53:00
1:53 AM,48.9,46.9,93,29.30,10.0,NNE,5.8,-,0.03,Rain,Light Rain,20,2012-10-12 09:53:00
2:53 AM,48.9,46.9,93,29.28,8.0,Variable,6.9,17.3,0.09,Rain,Light Rain,0,2012-10-12 10:53:00
3:53 AM,50.0,46.9,89,29.26,5.0,Variable,5.8,-,0.02,Rain,Rain,0,2012-10-12 11:53:00
4:13 AM,48.2,46.4,93,29.25,7.0,Variable,3.5,-,0.02,Rain,Rain,0,2012-10-12 12:13:00
4:53 AM,50.0,48.0,93,29.25,10.0,Calm,Calm,-,0.04,,Overcast,0,2012-10-12 12:53:00
5:53 AM,50.0,48.0,93,29.24,10.0,Calm,Calm,-,0.01,Rain,Light Rain,0,2012-10-12 13:53:00
6:53 AM,50.0,48.9,96,29.25,8.0,Calm,Calm,-,0.04,Rain,Light Rain,0,2012-10-12 14:53:00
7:53 AM,51.1,50.0,96,29.26,7.0,Variable,3.5,-,0.08,Rain,Light Rain,0,2012-10-12 15:53:00
8:48 AM,51.8,51.8,100,29.28,6.0,South,6.9,-,0.06,Rain,Light Rain,190,2012-10-12 16:48:00
8:53 AM,52.0,51.1,97,29.28,5.0,SSW,4.6,-,0.06,Rain,Light Rain,200,2012-10-12 16:53:00
9:53 AM,53.1,52.0,96,29.30,3.0,SSW,5.8,17.3,0.01,Rain,Light Rain,200,2012-10-12 17:53:00
10:06 AM,53.6,51.8,94,29.31,3.0,SSW,9.2,18.4,0.01,Rain,Light Rain,200,2012-10-12 18:06:00
10:30 AM,53.6,51.8,94,29.31,4.0,SSW,10.4,20.7,0.04,Rain,Light Rain,200,2012-10-12 18:30:00
10:49 AM,53.6,51.8,94,29.33,4.0,SSW,11.5,19.6,0.06,Rain,Light Rain,200,2012-10-12 18:49:00
10:53 AM,53.1,51.1,93,29.33,4.0,SSW,13.8,24.2,0.06,Rain,Light Rain,200,2012-10-12 18:53:00
11:29 AM,53.6,51.8,94,29.34,6.0,SSW,8.1,16.1,0.03,Rain,Light Rain,200,2012-10-12 19:29:00
11:49 AM,51.8,51.8,100,29.36,9.0,SSW,6.9,19.6,0.03,Rain,Light Rain,210,2012-10-12 19:49:00
11:53 AM,52.0,51.1,97,29.36,9.0,SSW,11.5,19.6,0.03,Rain,Light Rain,200,2012-10-12 19:53:00
12:53 PM,52.0,50.0,93,29.39,10.0,SSW,6.9,-,0.00,,Overcast,200,2012-10-12 20:53:00
1:53 PM,52.0,50.0,93,29.40,10.0,SSW,5.8,-,N/A,,Overcast,210,2012-10-12 21:53:00
2:04 PM,51.8,50.0,94,29.40,9.0,SSW,5.8,-,N/A,,Overcast,210,2012-10-12 22:04:00
2:14 PM,51.8,51.8,100,29.39,10.0,SSW,5.8,-,N/A,,Overcast,210,2012-10-12 22:14:00
2:23 PM,53.6,51.8,94,29.39,10.0,SSW,5.8,-,N/A,,Overcast,200,2012-10-12 22:23:00
2:53 PM,53.1,48.9,86,29.39,10.0,Variable,4.6,-,N/A,,Overcast,0,2012-10-12 22:53:00
3:53 PM,53.1,48.9,86,29.38,10.0,Variable,4.6,-,0.00,Rain,Light Rain,0,2012-10-12 23:53:00
4:53 PM,52.0,50.0,93,29.37,8.0,South,4.6,-,0.04,Rain,Rain,170,2012-10-13 00:53:00
5:53 PM,52.0,50.0,93,29.36,6.0,Variable,4.6,-,0.07,Rain,Rain,0,2012-10-13 01:53:00
6:53 PM,52.0,48.9,89,29.37,7.0,South,6.9,-,0.07,Rain,Rain,170,2012-10-13 02:53:00
7:53 PM,52.0,50.0,93,29.36,5.0,Variable,5.8,-,0.11,Rain,Light Rain,0,2012-10-13 03:53:00
8:09 PM,51.8,50.0,94,29.35,5.0,Variable,3.5,-,0.01,Rain,Rain,0,2012-10-13 04:09:00
8:23 PM,51.8,50.0,94,29.35,7.0,Variable,5.8,-,0.02,Rain,Light Rain,0,2012-10-13 04:23:00
8:31 PM,51.8,50.0,94,29.35,5.0,SSW,5.8,-,0.03,Rain,Light Rain,200,2012-10-13 04:31:00
9:00 PM,51.8,50.0,94,29.35,10.0,SSE,6.9,-,0.01,Rain,Light Rain,160,2012-10-13 05:00:00
9:24 PM,53.6,50.0,88,29.36,8.0,Variable,6.9,-,0.03,Rain,Rain,0,2012-10-13 05:24:00
10:06 PM,51.8,51.8,100,29.39,2.5,SSW,11.5,19.6,0.06,Rain,Heavy Rain,200,2012-10-13 06:06:00
10:19 PM,51.8,50.0,94,29.40,5.0,SSW,9.2,18.4,0.07,Rain,Light Rain,200,2012-10-13 06:19:00
10:53 PM,51.1,48.9,92,29.42,10.0,South,4.6,-,0.07,,Mostly Cloudy,190,2012-10-13 06:53:00
11:14 PM,50.0,48.2,94,29.43,10.0,SSW,9.2,-,N/A,,Mostly Cloudy,200,2012-10-13 07:14:00
11:26 PM,51.8,48.2,88,29.43,10.0,South,5.8,-,0.00,Rain,Light Rain,190,2012-10-13 07:26:00
11:43 PM,51.8,48.2,88,29.44,6.0,SSW,9.2,-,0.00,Rain,Light Rain,200,2012-10-13 07:43:00
11:50 PM,51.8,50.0,94,29.45,5.0,SSW,5.8,-,0.01,Rain,Light Rain,210,2012-10-13 07:50:00
11:53 PM,51.1,50.0,96,29.45,5.0,SSW,5.8,-,0.01,Rain,Light Rain,210,2012-10-13 07:53:00